Weather History for Quakertown, PA

Change the Weather History Date:

Monday, April 29, 2013

  Actual Average (KABE) Record (KABE)
Temperature  
Mean Temperature 52 °F 54 °F  
Max Temperature 55 °F 66 °F 86 °F (1974)
Min Temperature 50 °F 43 °F 29 °F (1947)
Degree Days  
Heating Degree Days 12 11  
Month to date heating degree days 446  
Since 1 July heating degree days 5558  
Cooling Degree Days 0 0  
Month to date cooling degree days 0  
Year to date cooling degree days 0  
Growing Degree Days 2 (Base 50)    
Moisture  
Dew Point 50 °F    
Average Humidity 91    
Maximum Humidity 100    
Minimum Humidity 58    
Precipitation  
Precipitation 0.17 in 0.12 in 1.76 in (1923)
Month to date precipitation 3.45  
Year to date precipitation 12.57  
Snow  
Snow 0.00 in 0.00 in T in (1951)
Month to date snowfall 1.0  
Since 1 July snowfall 32.9  
Snow Depth -    
Sea Level Pressure  
Sea Level Pressure 30.17 in    
Wind  
Wind Speed 6 mph (ESE)    
Max Wind Speed 12 mph    
Max Gust Speed 17 mph    
Visibility 6 miles    
Events      
T = Trace of Precipitation, MM = Missing Value Source: NWS Daily Summary

Daily Weather History Graph

Daily Weather History Graph

Search for Another Location

Airport:

Trip Planner

Search our weather history database for the weather conditions in past years. The results will help you decide how hot, cold, wet, or windy it might be!

Date:

Astronomy

Apr. 29, 2013 Rise Set
Actual Time 6:03 AM EDT 7:55 PM EDT
Civil Twilight 5:33 AM EDT 8:24 PM EDT
Nautical Twilight 4:57 AM EDT 9:00 PM EDT
Astronomical Twilight 4:19 AM EDT 9:39 PM EDT
Moon No Moon Rise 9:20 AM EDT (4/29)
Length of Visible Light 14h 51m
Length of Day
13h 52m
Waning Gibbous, 80% of the Moon is Illuminated
Apr 29
Waning Gibbous
May 2
Last Quarter
May 9
New
May 18
First Quarter
May 25
Full

Hourly Weather History & Observations

Time (EDT) Temp. Dew Point Humidity Pressure Visibility Wind Dir Wind Speed Gust Speed Precip Events Conditions
12:15 AM 53.6 °F 39.2 °F 58% 30.22 in 10.0 mi ESE 5.8 mph - N/A   Overcast
12:35 AM 53.6 °F 39.2 °F 58% 30.22 in 10.0 mi ESE 4.6 mph - N/A   Overcast
12:55 AM 53.6 °F 41.0 °F 62% 30.22 in 10.0 mi ESE 3.5 mph - N/A   Overcast
1:15 AM 53.6 °F 41.0 °F 62% 30.21 in 10.0 mi ESE 4.6 mph - N/A   Overcast
1:35 AM 53.6 °F 41.0 °F 62% 30.20 in 10.0 mi ESE 5.8 mph - N/A   Overcast
1:55 AM 53.6 °F 41.0 °F 62% 30.20 in 10.0 mi ESE 5.8 mph - N/A   Overcast
2:15 AM 53.6 °F 41.0 °F 62% 30.19 in 10.0 mi ESE 5.8 mph - N/A   Overcast
2:35 AM 53.6 °F 41.0 °F 62% 30.19 in 10.0 mi ESE 3.5 mph - N/A   Overcast
2:55 AM 53.6 °F 41.0 °F 62% 30.19 in 10.0 mi ESE 4.6 mph - N/A   Overcast
3:15 AM 51.8 °F 42.8 °F 71% 30.19 in 10.0 mi ESE 4.6 mph - N/A   Overcast
3:35 AM 51.8 °F 44.6 °F 76% 30.18 in 10.0 mi ESE 4.6 mph - N/A   Overcast
3:55 AM 50.0 °F 44.6 °F 82% 30.18 in 8.0 mi ESE 5.8 mph - N/A   Overcast
4:15 AM 50.0 °F 46.4 °F 87% 30.18 in 8.0 mi ESE 4.6 mph - N/A   Overcast
4:35 AM 50.0 °F 46.4 °F 87% 30.18 in 10.0 mi ESE 4.6 mph - N/A   Overcast
4:55 AM 50.0 °F 46.4 °F 87% 30.18 in 9.0 mi ESE 4.6 mph - N/A   Overcast
5:15 AM 50.0 °F 48.2 °F 94% 30.18 in 9.0 mi ESE 4.6 mph - N/A   Overcast
5:35 AM 50.0 °F 48.2 °F 94% 30.17 in 10.0 mi East 4.6 mph - N/A   Overcast
5:55 AM 50.0 °F 48.2 °F 94% 30.18 in 10.0 mi East 4.6 mph - N/A   Overcast
6:15 AM 50.0 °F 48.2 °F 94% 30.18 in 10.0 mi East 4.6 mph - N/A   Overcast
6:35 AM 50.0 °F 48.2 °F 94% 30.18 in 10.0 mi ESE 4.6 mph - N/A   Overcast
6:55 AM 50.0 °F 48.2 °F 94% 30.18 in 9.0 mi East 5.8 mph - N/A   Overcast
7:15 AM 50.0 °F 48.2 °F 94% 30.18 in 7.0 mi East 5.8 mph - N/A   Overcast
7:35 AM 50.0 °F 50.0 °F 100% 30.19 in 4.0 mi ESE 5.8 mph - N/A   Overcast
7:55 AM 50.0 °F 50.0 °F 100% 30.19 in 3.0 mi ESE 6.9 mph - N/A   Overcast
8:15 AM 51.8 °F 50.0 °F 94% 30.19 in 3.0 mi ESE 5.8 mph - N/A   Overcast
8:35 AM 51.8 °F 50.0 °F 94% 30.19 in 5.0 mi ESE 6.9 mph - N/A   Overcast
8:55 AM 51.8 °F 50.0 °F 94% 30.18 in 7.0 mi ESE 11.5 mph - N/A   Overcast
9:15 AM 51.8 °F 50.0 °F 94% 30.18 in 7.0 mi ESE 9.2 mph - N/A   Overcast
9:35 AM 51.8 °F 50.0 °F 94% 30.18 in 7.0 mi ESE 6.9 mph - N/A   Overcast
9:55 AM 51.8 °F 50.0 °F 94% 30.18 in 9.0 mi East 9.2 mph - N/A   Overcast
10:15 AM 51.8 °F 50.0 °F 94% 30.18 in 2.5 mi ESE 9.2 mph - N/A   Overcast
10:35 AM 51.8 °F 50.0 °F 94% 30.18 in 1.5 mi ESE 6.9 mph - 0.01 in   Overcast
10:55 AM 51.8 °F 50.0 °F 94% 30.17 in 2.5 mi ESE 9.2 mph - 0.01 in   Overcast
11:15 AM 53.6 °F 51.8 °F 94% 30.17 in 3.0 mi ESE 10.4 mph - 0.01 in   Overcast
11:35 AM 53.6 °F 51.8 °F 94% 30.17 in 3.0 mi ESE 8.1 mph 17.3 mph 0.02 in   Overcast
11:55 AM 53.6 °F 51.8 °F 94% 30.17 in 4.0 mi ESE 9.2 mph - 0.02 in   Overcast
12:15 PM 53.6 °F 51.8 °F 94% 30.17 in 4.0 mi East 9.2 mph - N/A   Overcast
12:35 PM 53.6 °F 50.0 °F 88% 30.16 in 5.0 mi ESE 10.4 mph - N/A   Overcast
12:55 PM 53.6 °F 51.8 °F 94% 30.16 in 2.5 mi ESE 11.5 mph 16.1 mph N/A   Overcast
1:15 PM 53.6 °F 51.8 °F 94% 30.16 in 2.5 mi ESE 8.1 mph - N/A   Overcast
1:35 PM 53.6 °F 53.6 °F 100% 30.15 in 2.5 mi East 6.9 mph - 0.01 in   Overcast
1:55 PM 53.6 °F 53.6 °F 100% 30.15 in 2.0 mi ESE 10.4 mph - 0.01 in   Overcast
2:15 PM 53.6 °F 53.6 °F 100% 30.15 in 1.8 mi ESE 8.1 mph - N/A   Overcast
2:35 PM 53.6 °F 53.6 °F 100% 30.15 in 1.5 mi ESE 9.2 mph - N/A   Overcast
2:55 PM 55.4 °F 53.6 °F 94% 30.14 in 1.5 mi ESE 10.4 mph 17.3 mph 0.01 in   Overcast
3:15 PM 55.4 °F 53.6 °F 94% 30.14 in 1.2 mi ESE 9.2 mph - N/A   Overcast
3:35 PM 53.6 °F 53.6 °F 100% 30.14 in 1.0 mi ESE 9.2 mph - 0.01 in   Overcast
3:55 PM 55.4 °F 53.6 °F 94% 30.14 in 1.2 mi ESE 8.1 mph - 0.02 in   Overcast
4:15 PM 53.6 °F 53.6 °F 100% 30.13 in 1.0 mi ESE 8.1 mph - 0.02 in   Overcast
4:35 PM 53.6 °F 53.6 °F 100% 30.14 in 2.0 mi ESE 6.9 mph - 0.05 in   Overcast
4:55 PM 53.6 °F 53.6 °F 100% 30.14 in 3.0 mi East 4.6 mph - 0.08 in   Overcast
5:15 PM 53.6 °F 53.6 °F 100% 30.14 in 2.5 mi ESE 5.8 mph - N/A   Overcast
5:35 PM 53.6 °F 53.6 °F 100% 30.14 in 1.8 mi ESE 6.9 mph - 0.01 in   Overcast
5:55 PM 53.6 °F 53.6 °F 100% 30.14 in 6.0 mi East 5.8 mph - 0.01 in   Overcast
6:15 PM 53.6 °F 53.6 °F 100% 30.14 in 7.0 mi East 4.6 mph - N/A   Overcast
6:35 PM 53.6 °F 53.6 °F 100% 30.14 in 6.0 mi East 6.9 mph - N/A   Overcast
6:55 PM 55.4 °F 53.6 °F 94% 30.14 in 8.0 mi ESE 5.8 mph - N/A   Overcast
7:15 PM 55.4 °F 53.6 °F 94% 30.15 in 9.0 mi ESE 5.8 mph - N/A   Overcast
7:35 PM 55.4 °F 53.6 °F 94% 30.15 in 5.0 mi East 5.8 mph - N/A   Overcast
7:55 PM 55.4 °F 53.6 °F 94% 30.16 in 3.0 mi ESE 5.8 mph - N/A   Overcast
8:15 PM 53.6 °F 53.6 °F 100% 30.16 in 4.0 mi ESE 8.1 mph - N/A   Overcast
8:35 PM 55.4 °F 53.6 °F 94% 30.17 in 8.0 mi ESE 5.8 mph - N/A   Overcast
8:55 PM 53.6 °F 53.6 °F 100% 30.17 in 2.0 mi SE 5.8 mph - N/A   Overcast
9:15 PM 53.6 °F 53.6 °F 100% 30.18 in 1.8 mi ESE 5.8 mph - N/A   Overcast
9:35 PM 53.6 °F 53.6 °F 100% 30.18 in 2.0 mi ESE 6.9 mph - 0.01 in   Overcast
9:55 PM 53.6 °F 53.6 °F 100% 30.19 in 10.0 mi SE 6.9 mph - 0.01 in   Overcast
10:15 PM 53.6 °F 53.6 °F 100% 30.19 in 10.0 mi ESE 6.9 mph - N/A   Overcast
10:35 PM 53.6 °F 53.6 °F 100% 30.19 in 10.0 mi East 4.6 mph - N/A   Overcast
10:55 PM 53.6 °F 53.6 °F 100% 30.19 in 10.0 mi East 4.6 mph - N/A   Overcast
11:35 PM 53.6 °F 53.6 °F 100% 30.19 in 2.0 mi ESE 4.6 mph - N/A   Overcast
11:55 PM 53.6 °F 53.6 °F 100% 30.19 in 3.0 mi ESE 4.6 mph - N/A   Overcast